Waarnemingen

Advertentie
Mijn weer
Ile Rousse, Frankrijk (7753): temperatuur & dauwpunt: 18.04.2018 10:00:00 - 24.04.2018 10:00:00 (CEST)Ile Rousse, Frankrijk (7753): windsnelheid & windstoten: 18.04.2018 10:00:00 - 24.04.2018 10:00:00 (CEST)Ile Rousse, Frankrijk (7753): windrichting: 18.04.2018 10:00:00 - 24.04.2018 10:00:00 (CEST)Ile Rousse, Frankrijk (7753): luchtdruk: 18.04.2018 10:00:00 - 24.04.2018 10:00:00 (CEST)Ile Rousse, Frankrijk (7753): zicht: 18.04.2018 10:00:00 - 24.04.2018 10:00:00 (CEST)Ile Rousse, Frankrijk (7753): neerslag: 18.04.2018 10:00:00 - 24.04.2018 10:00:00 (CEST)
Datum & Tijd tt [°C] td [°C] ff [km/u] ff [kn] fx [km/u] fx [kn] dd ppp [hPa] vv [km] rr [mm]
24.04.2018 10:00:00 17,7 12,2 13 7 22 12 NO 1018,8 - 0,0
24.04.2018 09:00:00 17,8 10,9 16 9 22 12 O 1018,1 - 0,0
24.04.2018 08:00:00 16,9 9,1 12 7 23 13 O 1017,7 18 0,0
24.04.2018 07:00:00 16,5 8,5 16 9 22 12 NNO 1017,1 - 0,0
24.04.2018 06:00:00 15,8 9,7 3 2 15 8 Z 1017,0 - 0,0
24.04.2018 05:00:00 17,0 8,2 11 6 24 13 ONO 1017,1 18 0,0
24.04.2018 04:00:00 17,4 7,4 16 9 24 13 OZO 1017,0 - 0,0
24.04.2018 03:00:00 16,3 8,8 8 4 19 10 O 1017,4 - 0,0
24.04.2018 02:00:00 17,9 7,9 7 4 15 8 O 1017,2 - 0,0
24.04.2018 01:00:00 17,3 7,1 11 6 14 7 O 1017,9 - 0,0
24.04.2018 00:00:00 17,3 7,6 - - - - - 1018,5 - 0,0
23.04.2018 23:00:00 17,3 9,0 - - - - - 1018,6 - 0,0
23.04.2018 22:00:00 17,2 9,4 - - - - - 1018,3 - 0,0
23.04.2018 21:00:00 17,3 9,5 - - - - - 1018,0 - 0,0
23.04.2018 20:00:00 17,9 8,5 - - - - - 1018,1 18 0,0
23.04.2018 19:00:00 19,5 10,2 - - - - - 1018,1 - 0,0
23.04.2018 18:00:00 20,1 10,8 - - - - - 1018,0 - 0,0
23.04.2018 17:00:00 20,3 10,4 - - - - - 1017,9 - 0,0
23.04.2018 16:00:00 19,7 12,7 - - - - - 1018,2 - 0,0
23.04.2018 15:00:00 20,9 11,0 - - - - - 1018,6 - 0,0
23.04.2018 14:00:00 19,9 10,0 24 13 37 20 W 1019,0 20 0,0
23.04.2018 13:00:00 21,2 9,4 21 11 31 17 WZW 1019,2 - 0,0
23.04.2018 12:00:00 20,0 11,5 17 9 38 21 WZW 1019,6 - 0,0
23.04.2018 11:00:00 19,3 10,3 19 10 32 18 W 1019,6 18 0,0
23.04.2018 10:00:00 18,9 8,8 10 5 24 13 WZW 1019,3 - 0,0
23.04.2018 09:00:00 18,4 7,8 11 6 18 10 WZW 1019,3 - 0,0
23.04.2018 08:00:00 18,1 8,1 3 1 8 4 ONO 1018,9 20 0,0
23.04.2018 07:00:00 18,1 6,9 5 3 12 6 NNO 1018,5 - 0,0
23.04.2018 06:00:00 17,5 7,0 5 3 13 7 Z 1018,3 - 0,0
23.04.2018 05:00:00 17,3 7,1 8 5 16 8 WZW 1018,5 - 0,0
23.04.2018 04:00:00 17,8 6,9 7 4 10 6 W 1018,7 - 0,0
23.04.2018 03:00:00 18,4 6,9 3 1 14 8 W 1018,7 - 0,0
23.04.2018 02:00:00 17,7 7,4 13 7 19 10 ZZW 1019,2 - 0,0
23.04.2018 01:00:00 17,4 7,7 7 4 10 5 WZW 1019,5 - 0,0
23.04.2018 00:00:00 17,8 7,5 10 5 20 11 WZW 1019,5 - 0,0
22.04.2018 23:00:00 17,5 8,1 16 8 22 12 ZW 1019,4 - 0,0
22.04.2018 22:00:00 17,4 8,3 17 9 22 12 WZW 1019,1 - 0,0
22.04.2018 21:00:00 18,3 7,7 12 7 17 9 WZW 1018,5 - 0,0
22.04.2018 20:00:00 18,4 9,7 10 6 27 14 WZW 1017,8 18 0,0
22.04.2018 19:00:00 19,9 11,9 17 9 38 21 WZW 1017,5 - 0,0
22.04.2018 18:00:00 20,4 11,6 24 13 40 22 WZW 1017,5 - 0,0
22.04.2018 17:00:00 20,2 12,2 22 12 32 18 W 1017,4 18 0,0
22.04.2018 16:00:00 22,0 9,5 17 9 29 15 W 1017,5 - 0,0
22.04.2018 15:00:00 21,9 7,7 18 10 27 14 W 1017,9 - 0,0
22.04.2018 14:00:00 21,9 8,0 18 10 25 13 W 1017,9 18 0,0
22.04.2018 13:00:00 21,6 7,4 15 8 30 16 W 1018,4 - 0,0
22.04.2018 12:00:00 21,7 8,6 18 10 36 19 W 1018,6 - 0,0
22.04.2018 11:00:00 20,3 10,4 19 11 36 19 WZW 1018,5 18 0,0
22.04.2018 10:00:00 17,3 13,4 21 11 35 19 WZW 1018,6 - 0,0
22.04.2018 09:00:00 16,2 11,6 8 4 12 6 ZW 1018,4 - 0,0
22.04.2018 08:00:00 16,9 10,0 3 2 6 3 NNW 1017,9 19 0,0
22.04.2018 07:00:00 16,1 10,0 6 4 23 12 WZW 1017,5 - 0,0
22.04.2018 06:00:00 18,9 8,8 3 2 9 5 NO 1017,0 - 0,0
22.04.2018 05:00:00 19,0 7,7 5 3 9 5 ZO 1017,2 15 0,0
22.04.2018 04:00:00 17,7 9,6 2 1 5 3 O 1017,6 - 0,0
22.04.2018 03:00:00 17,7 9,3 3 1 13 7 ONO 1017,9 - 0,0
22.04.2018 02:00:00 17,7 8,3 6 3 8 4 WZW 1018,4 - 0,0
22.04.2018 01:00:00 18,2 7,9 2 1 8 4 NNO 1018,6 - 0,0
22.04.2018 00:00:00 17,8 8,9 6 3 9 5 WZW 1018,7 - 0,0
21.04.2018 23:00:00 18,1 8,1 6 3 9 5 WZW 1018,8 - 0,0
21.04.2018 22:00:00 17,9 9,3 7 4 13 7 ZW 1018,9 - 0,0
21.04.2018 21:00:00 17,6 11,6 7 4 13 7 ZZW 1018,4 - 0,0
21.04.2018 20:00:00 17,5 11,7 11 6 22 12 WZW 1017,6 - 0,0
21.04.2018 19:00:00 19,3 12,8 16 9 22 12 WZW 1017,5 - 0,0
21.04.2018 18:00:00 20,2 13,2 16 8 26 14 WZW 1017,6 - 0,0
21.04.2018 17:00:00 19,4 14,0 15 8 23 13 WZW 1017,8 15 0,0
21.04.2018 16:00:00 19,1 13,7 17 9 23 12 W 1018,3 - 0,0
21.04.2018 15:00:00 19,1 14,8 11 6 21 11 W 1018,6 - 0,0
21.04.2018 14:00:00 18,1 15,0 10 6 20 11 W 1018,9 - 0,0
21.04.2018 13:00:00 18,2 15,4 11 6 21 11 W 1019,2 - 0,0
21.04.2018 12:00:00 18,2 12,6 10 5 16 9 NNW 1019,5 - 0,0
21.04.2018 11:00:00 20,1 11,6 5 3 11 6 ONO 1019,5 - 0,0
21.04.2018 10:00:00 18,5 11,8 6 3 11 6 NO 1019,4 - 0,0
21.04.2018 09:00:00 18,6 9,9 6 3 12 7 O 1019,4 - 0,0
21.04.2018 08:00:00 17,4 9,0 7 4 9 5 OZO 1019,4 - 0,0
21.04.2018 07:00:00 17,2 8,3 3 1 6 3 NNO 1019,1 - 0,0
21.04.2018 06:00:00 17,9 7,9 4 2 10 5 WNW 1018,9 - 0,0
21.04.2018 05:00:00 18,3 7,7 3 1 14 8 ZW 1019,1 - 0,0
21.04.2018 04:00:00 18,9 7,6 11 6 16 8 Z 1019,4 - 0,0
21.04.2018 03:00:00 18,7 7,8 11 6 23 13 ZW 1019,8 - 0,0
21.04.2018 02:00:00 17,4 9,3 18 10 28 15 WZW 1020,1 - 0,0
21.04.2018 01:00:00 16,8 8,7 6 3 16 9 W 1020,4 - 0,0
21.04.2018 00:00:00 18,3 8,0 12 7 24 13 WZW 1020,1 - 0,0
20.04.2018 23:00:00 17,4 10,3 14 8 20 11 WZW 1020,2 - 0,0
20.04.2018 22:00:00 21,0 4,5 18 10 24 13 O 1019,9 - 0,0
20.04.2018 21:00:00 20,4 5,2 14 8 21 11 O 1019,9 - 0,0
20.04.2018 20:00:00 21,1 6,2 15 8 18 10 O 1019,2 18 0,0
20.04.2018 19:00:00 21,3 8,5 12 7 36 20 ONO 1019,2 - 0,0
20.04.2018 18:00:00 21,0 9,3 17 9 40 22 O 1019,6 - 0,0
20.04.2018 17:00:00 23,0 7,5 27 14 44 24 NO 1019,7 20 0,0
20.04.2018 16:00:00 20,5 8,8 30 16 45 24 NO 1020,2 - 0,0
20.04.2018 15:00:00 20,3 9,2 20 11 49 26 NO 1021,1 - 0,0
20.04.2018 14:00:00 21,0 10,5 17 9 37 20 ONO 1021,6 - 0,0
20.04.2018 13:00:00 19,8 11,6 18 10 27 14 ONO 1022,2 - 0,0
20.04.2018 12:00:00 19,7 11,7 10 5 19 10 ONO 1022,6 - 0,0
20.04.2018 11:00:00 18,9 11,5 5 3 15 8 O 1022,7 - 0,0
20.04.2018 10:00:00 17,8 11,6 5 3 16 8 O 1022,4 - 0,0
20.04.2018 09:00:00 16,6 10,2 11 6 18 10 NO 1022,4 - 0,0
20.04.2018 08:00:00 16,3 10,8 3 2 6 4 ZO 1022,2 18 0,0
20.04.2018 07:00:00 15,8 10,1 5 3 9 5 NO 1022,3 - 0,0
20.04.2018 06:00:00 16,2 10,1 6 3 8 4 NNO 1022,1 - 0,0
20.04.2018 05:00:00 16,2 9,8 7 4 16 8 ZO 1022,4 18 0,0
20.04.2018 04:00:00 16,0 10,1 5 3 10 6 ZW 1022,7 - 0,0
20.04.2018 03:00:00 15,2 11,0 5 3 11 6 W 1023,0 - 0,0
20.04.2018 02:00:00 16,0 10,5 9 5 19 10 WZW 1023,1 - 0,0
20.04.2018 01:00:00 15,3 11,1 16 9 20 11 WZW 1023,6 - 0,0
20.04.2018 00:00:00 16,4 9,8 4 2 16 9 NNO 1023,6 - 0,0
19.04.2018 23:00:00 17,8 9,7 11 6 14 8 OZO 1023,6 - 0,0
19.04.2018 22:00:00 16,5 10,1 7 4 9 5 O 1023,8 - 0,0
19.04.2018 21:00:00 16,4 10,3 3 1 13 7 NO 1023,7 - 0,0
19.04.2018 20:00:00 16,6 11,7 11 6 17 9 WZW 1023,6 20 0,0
19.04.2018 19:00:00 18,2 12,4 14 7 23 12 WZW 1023,4 - 0,0
19.04.2018 18:00:00 19,8 12,1 14 8 28 15 WZW 1023,5 - 0,0
19.04.2018 17:00:00 20,1 10,5 17 9 30 16 WZW 1023,7 20 0,0
19.04.2018 16:00:00 20,3 11,5 11 6 35 19 W 1024,1 - 0,0
19.04.2018 15:00:00 20,0 9,0 15 8 40 22 NNO 1024,3 - 0,0
19.04.2018 14:00:00 21,0 8,9 24 13 53 29 NO 1024,2 20 0,0
19.04.2018 13:00:00 20,2 8,8 40 22 55 30 NO 1023,8 - 0,0
19.04.2018 12:00:00 18,5 9,8 32 17 46 25 NNO 1024,5 - 0,0
19.04.2018 11:00:00 19,7 9,0 33 18 52 28 NO 1024,3 20 0,0
19.04.2018 10:00:00 19,5 9,4 34 18 46 25 ONO 1024,0 - 0,0
19.04.2018 09:00:00 18,5 8,7 26 14 41 22 O 1024,3 - 0,0
19.04.2018 08:00:00 17,3 8,7 29 15 37 20 ONO 1024,2 - 0,0
19.04.2018 07:00:00 17,1 8,0 26 14 35 19 O 1024,4 - 0,0
19.04.2018 06:00:00 17,5 8,1 25 13 35 19 O 1024,1 - 0,0
19.04.2018 05:00:00 17,1 8,2 25 13 33 18 O 1024,4 20 0,0
19.04.2018 04:00:00 16,0 9,2 21 11 36 19 O 1024,9 - 0,0
19.04.2018 03:00:00 17,4 8,0 20 11 29 15 O 1024,9 - 0,0
19.04.2018 02:00:00 18,2 7,6 15 8 19 11 O 1025,3 - 0,0
19.04.2018 01:00:00 17,9 7,6 13 7 24 13 O 1025,4 - 0,0
19.04.2018 00:00:00 18,7 7,5 22 12 32 17 O 1025,1 - 0,0
18.04.2018 23:00:00 18,6 7,1 28 15 35 19 O 1025,3 - 0,0
18.04.2018 22:00:00 17,8 8,6 16 8 26 14 ONO 1025,4 - 0,0
18.04.2018 21:00:00 19,5 7,2 24 13 32 17 O 1024,6 - 0,0
18.04.2018 20:00:00 19,2 7,9 22 12 34 18 O 1024,2 20 0,0
18.04.2018 19:00:00 19,6 8,6 22 12 34 18 O 1024,3 - 0,0
18.04.2018 18:00:00 19,2 11,2 20 11 44 24 O 1024,3 - 0,0
18.04.2018 17:00:00 19,5 12,3 18 10 37 20 ONO 1024,3 15 0,0
18.04.2018 16:00:00 18,6 11,7 30 16 51 28 NO 1024,4 - 0,0
18.04.2018 15:00:00 22,8 10,6 35 19 58 31 ONO 1024,2 - 0,0
18.04.2018 14:00:00 23,5 9,8 38 21 57 31 ONO 1024,0 - 0,0
18.04.2018 13:00:00 22,4 10,5 36 19 55 30 ONO 1024,5 - 0,0
18.04.2018 12:00:00 20,1 11,3 32 18 47 26 NO 1024,6 - 0,0
18.04.2018 11:00:00 19,4 10,7 28 15 50 27 ONO 1024,8 15 0,0
18.04.2018 10:00:00 19,9 9,5 37 20 50 27 O 1024,6 - 0,0

tt = temperatuur
td = dauwpunt
ff = windsnelheid
fx = windstoten
dd = windrichting
ppp = luchtdruk
vv = zicht
rr = neerslag

Weerstations in de omgeving